Location: Houhaj�rvi
(61.2833°N, 23.0000°E)
Time: 16:56:02
(UTC+00:00)

USA 229 DEB - Pass Details

Date: 27 February 2020
Orbit: 988 x 1224 km, 63.4° (Epoch: 26 March)

Event Time Altitude Azimuth Distance (km) Brightness Sun altitude
Rises 21:02:36 0° 288° (WNW) 3,849 7.2 -34.0°
Reaches altitude 10° 21:05:11 10° 289° (WNW) 2,925 6.5 -34.1°
Enters shadow 21:11:07 68° 300° (WNW) 1,205 3.9 -34.5°
